Skip Page Navigation
NASA JPL Caltech
NASA Logo - Jet Propulsion Laboratory + View the NASA Portal
+ Center for Near-Earth Object Studies
JPL Home Earth Solar System Stars & Galaxies Technology
JPL Solar System Dynamics
BODIES ORBITS EPHEMERIDES TOOLS PHYSICAL DATA DISCOVERY FAQ SITE MAP
IMPORTANT: The SSD Announcement email list is now available. Major changes are coming in the near future, including possible hostname and/or URL changes. To be notified of such changes, subscribe to this email list.

Please visit this page for more details.


JPL Small-Body Database Browser
Search: [ help ]  
434233 (2003 ST296)
Classification: Inner Main-belt Asteroid          SPK-ID: 2434233
Ephemeris | Orbit Diagram | Orbital Elements | Mission Design | Physical Parameters | Discovery Circumstances ]

[ show orbit diagram ]
Orbital Elements at Epoch 2458600.5 (2019-Apr-27.0) TDB
Reference: JPL 8 (heliocentric ecliptic J2000)
 Element Value Uncertainty (1-sigma)   Units 
e .09053899616570152 1.2276e-07  
a 1.889406498862969 1.1833e-08 au
q 1.718341531106963 2.2635e-07 au
i 21.06094811160619 1.4675e-05 deg
node 34.68242709802918 1.7655e-05 deg
peri 291.3135863099042 9.3939e-05 deg
M 48.94075412720429 9.9822e-05 deg
tp 2458471.540099178759
(2018-Dec-19.04009918)
0.00026244 TDB
period 948.6074565786213
2.60
8.9111e-06
2.44e-08
d
yr
n .3795036582343826 3.565e-09 deg/d
Q 2.060471466618975 1.2904e-08 au
  Orbit Determination Parameters
   # obs. used (total)      149  
   data-arc span      4823 days (13.20 yr)  
   first obs. used      2003-09-22  
   last obs. used      2016-12-05  
   planetary ephem.      DE431  
   SB-pert. ephem.      SB431-N16  
   condition code      0  
   norm. resid. RMS      .66237  
   source      ORB  
   producer      Otto Matic  
   solution date      2017-Apr-09 13:47:37  

Additional Information
 Earth MOID = .784732 au 
 Jupiter MOID = 3.15415 au 
 T_jup = 3.874 
[ show covariance matrix ]

Ephemeris | Orbit Diagram | Orbital Elements | Mission Design | Physical Parameters | Discovery Circumstances ]

Physical Parameter Table
Parameter Symbol Value Units Sigma Reference Notes
absolute magnitude H 17.7   n/a MPO397533  

434233 (2003 ST296)          Discovered 2003-Sep-29 by LONEOS at Anderson Mesa
Reference: Last Updated: 2015-06-04
Ephemeris | Orbit Diagram | Orbital Elements | Mission Design | Physical Parameters | Discovery Circumstances ]
ABOUT SSD CREDITS/AWARDS PRIVACY/COPYRIGHT GLOSSARY LINKS
FirstGov
(server date/time)  
NASA Home Page
Site Manager:   Ryan S. Park
Webmaster  Alan B. Chamberlin